Location: Brede
(50.9167°N, 0.6000°E)
Time: 23:02:03
(UTC+00:00)

A-11 Canister half - Pass Details

Date: 01 December 2020
Orbit: 1524 x 1684 km, 47.3° (Epoch: 24 January)

Event Time Altitude Azimuth Distance (km) Brightness Sun altitude
Exits shadow 04:05:41 - 195° (SSW) 4,299 11.1 -32.6°
Reaches altitude 10° 04:07:05 10° 191° (S) 3,940 11.0 -32.4°
Maximum altitude 04:15:17 29° 136° (SE) 2,708 10.5 -31.1°
Drops below altitude 10° 04:23:26 10° 82° (E) 3,913 12.0 -29.8°
Sets 04:27:04 0° 72° (ENE) 4,883 12.7 -29.2°
